Flag for Turkey Weather past 2 weeks in Izmir, Turkey

Now
70 °F

Scattered clouds.


Feels Like: 70 °F
Forecast: 62 / 78 °F
Wind: 6 mph from North

Location: Izmir / Adnan Menderes

Current Time: May 27, 2015 at 9:46:54 PM

Latest Report: May 27, 2015 at 8:50 PM


Visibility: N/A

Pressure: 29.71 "Hg

Humidity: 64%

Dew point: 57 °F

Location of IzmirLocation

Historic Weather in Izmir — Graph

°F

Izmir temperature yesterday

Maximum temperature yesterday: 82 °F (at 2:50 PM)
Minimum temperature yesterday: 55 °F (at 5:20 AM)
Average temperature yesterday: 69 °F

Past Weeks' High & Low Weather Summary

 TemperatureHumidityPressure
High91 °F (May 23, 2:50 PM)100% (May 27, 7:50 AM)30.15 "Hg (May 27, 7:50 AM)
Low52 °F (May 14, 4:20 AM)13% (May 19, 12:50 PM)29.65 "Hg (May 27, 4:50 PM)
Average70 °F57%29.89 "Hg
* Reported May 12 8:20 PM — May 27 8:20 PM, Izmir, Weather by CustomWeather, © 2015

Note: Actual official high and low records may vary slightly from our data, if they occured in-between our weather recording intervals... More about our weather records

Advertising

Izmir weather history for previous 24 hours

 ConditionsComfort  
Time TempWeatherWind HumidityBarometerVisibility
8:20 PM
Wed, May 27
70 °FScattered clouds.8 mph64%29.68 "HgN/A
7:50 PM72 °FScattered clouds.12 mph61%29.68 "HgN/A
7:20 PM72 °FScattered clouds.14 mph65%29.68 "HgN/A
6:50 PM73 °FBroken clouds.14 mph57%29.68 "HgN/A
6:20 PM75 °FBroken clouds.16 mph54%29.65 "HgN/A
5:50 PM75 °FBroken clouds.14 mph54%29.65 "HgN/A
5:20 PM75 °FBroken clouds.12 mph54%29.65 "HgN/A
4:50 PM75 °FBroken clouds.12 mph50%29.65 "HgN/A
4:20 PM73 °FBroken clouds.13 mph61%29.68 "HgN/A
3:50 PM73 °FBroken clouds.12 mph61%29.68 "HgN/A
3:20 PM72 °FBroken clouds.12 mph73%29.68 "HgN/A
2:50 PM75 °FSprinkles. Broken clouds.3 mph54%29.68 "HgN/A
2:20 PM75 °FBroken clouds.3 mph57%29.68 "HgN/A
1:50 PM73 °FBroken clouds.3 mph65%29.68 "HgN/A
1:20 PM72 °FBroken clouds.5 mph69%29.68 "HgN/A
12:50 PM72 °FBroken clouds.3 mph73%29.68 "HgN/A
12:20 PM68 °FBroken clouds.3 mph78%29.71 "HgN/A
11:50 AM68 °FBroken clouds.5 mph78%29.71 "HgN/A
11:20 AM66 °FBroken clouds.5 mph83%29.71 "HgN/A
10:50 AM64 °FBroken clouds.5 mph88%29.71 "HgN/A
10:20 AM64 °FBroken clouds.3 mph88%29.71 "HgN/A
9:50 AM63 °FSprinkles. Broken clouds.No wind94%29.71 "Hg5 mi
9:20 AM63 °FSprinkles. Broken clouds.5 mph94%29.74 "Hg4 mi
8:50 AM63 °FSprinkles. Broken clouds.3 mph94%29.74 "Hg4 mi
8:20 AM61 °FSprinkles. Broken clouds.3 mph100%29.71 "Hg5 mi
7:50 AM61 °FSprinkles. Broken clouds.1 mph100%29.74 "HgN/A
7:20 AM63 °FSprinkles. Broken clouds.6 mph94%29.74 "HgN/A
6:50 AM63 °FThunderstorms. Partly cloudy.10 mph94%29.80 "Hg4 mi
6:20 AM63 °FThunderstorms. Partly cloudy.9 mph94%29.77 "Hg2 mi
5:50 AM63 °FThunderstorms. Partly cloudy.7 mph94%29.71 "Hg5 mi
5:20 AM63 °FSprinkles. Partly cloudy.9 mph94%29.74 "HgN/A
4:50 AM63 °FSprinkles. Partly cloudy.10 mph94%29.74 "HgN/A
4:20 AM63 °FSprinkles. Partly cloudy.9 mph94%29.74 "HgN/A
3:50 AM63 °FSprinkles. Partly cloudy.8 mph94%29.71 "HgN/A
3:20 AM63 °FSprinkles. Partly cloudy.9 mph94%29.80 "HgN/A
2:50 AM64 °FSprinkles. Partly cloudy.5 mph88%29.77 "HgN/A
2:20 AM64 °FSprinkles. Partly cloudy.7 mph83%29.77 "HgN/A
1:50 AM64 °FSprinkles. Partly cloudy.2 mph88%29.74 "HgN/A
1:20 AM64 °FSprinkles. Partly cloudy.7 mph88%29.74 "HgN/A
12:50 AM64 °FSprinkles. Partly cloudy.7 mph88%29.80 "HgN/A
12:20 AM64 °FSprinkles. Partly cloudy.9 mph88%29.83 "HgN/A
11:50 PM
Tue, May 26
64 °FSprinkles. Partly cloudy.6 mph83%29.80 "Hg6 mi
11:20 PM64 °FPartly cloudy.9 mph88%29.80 "HgN/A
10:50 PM66 °FSprinkles. Partly cloudy.6 mph78%29.77 "HgN/A
10:20 PM70 °FPartly cloudy.8 mph60%29.83 "HgN/A
9:50 PM70 °FPartly cloudy.2 mph57%29.77 "HgN/A
9:20 PM70 °FBroken clouds.3 mph53%29.77 "HgN/A
Weather by CustomWeather, © 2015

See weather overviewHow to use our weather pages